Welcome to the New NWS' Forecast!
Most changes are behind the scenes, but click here for differences you might notice.

Regional Weather Roundup (RWR)

Issued by National Weather Service (NWS)

                            
850 
ASUS45 KCYS 201210
RWRWY 

WYOMING REGIONAL WEATHER ROUNDUP
NATIONAL WEATHER SERVICE CHEYENNE WY
600 AM MDT MON AUG 20 2018

NOTE:  "FAIR" INDICATES FEW OR NO CLOUDS BELOW 12,000 FEET
WITH NO SIGNIFICANT WEATHER AND/OR OBSTRUCTIONS TO VISIBILITY.

WYZ001-201300-
YELLOWSTONE NATIONAL PARK
  
CITY           SKY/WX    TMP DP  RH WIND       PRES   REMARKS
LK YELLOWSTONE   N/A     37  36  96 NW3       30.30S                  
6HR MIN TEMP:  37; 6HR MAX TEMP:  42;                                

W YELLOWSTONE  NOT AVBL                                               

$$
WYZ002>013-054>058-071-098>099-201300-
NORTHERN WYOMING
  
CITY           SKY/WX    TMP DP  RH WIND       PRES   REMARKS
JACKSON        NOT AVBL                                               
CODY           FAIR      51  49  92 CALM      30.19R FOG              
GREYBULL       FAIR      56  51  84 SE5       30.11S                  
6HR MIN TEMP:  56; 6HR MAX TEMP:  63;                                

WORLAND        FAIR      60  50  69 SE9       30.12S                  
6HR MIN TEMP:  60; 6HR MAX TEMP:  63;                                

SHERIDAN       FAIR      54  48  80 CALM      30.17S                  
6HR MIN TEMP:  53; 6HR MAX TEMP:  58;                                

BUFFALO        FAIR      50  47  89 SE3       30.21F FOG              
6HR MIN TEMP:  50; 6HR MAX TEMP:  54;                                

GILLETTE       FAIR      47  44  90 SE6       30.22S                  
6HR MIN TEMP:  46; 6HR MAX TEMP:  48;                                

HULETT         FAIR      43  36  75 CALM      30.26R                  
NEWCASTLE      FAIR      45  37  76 E6        30.27S                  

$$
WYZ014>020-022>026-101>103-201300-
CENTRAL WYOMING
  
CITY           SKY/WX    TMP DP  RH WIND       PRES   REMARKS
BIG PINEY      FAIR      38  30  73 NW8       30.29S WCI  32          
6HR MIN TEMP:  38; 6HR MAX TEMP:  56;                                

PINEDALE       FAIR      37  37 100 NW5       30.30S WCI  34          
DUBOIS         FAIR      41  36  81 W9        30.30S                  
LANDER         FAIR      51  46  83 SE3       30.21S                  
6HR MIN TEMP:  50; 6HR MAX TEMP:  62;                                

RIVERTON       FAIR      49  44  83 CALM      30.21S                  
6HR MIN TEMP:  49; 6HR MAX TEMP:  58;                                

CASPER         FAIR      47  45  93 E8        30.24F FOG              
6HR MIN TEMP:  47; 6HR MAX TEMP:  54;                                

DOUGLAS        CLOUDY    45  45 100 SE7       30.27F FOG              
6HR MIN TEMP:  42; 6HR MAX TEMP:  50;                                


$$
WYZ021-027>030-104>119-201300-
SOUTHERN WYOMING
  
CITY           SKY/WX    TMP DP  RH WIND       PRES   REMARKS
EVANSTON       FAIR      53  34  48 SE7       30.25F                  
6HR MIN TEMP:  51; 6HR MAX TEMP:  59;                                

KEMMERER       FAIR      46  34  61 N9        30.27F                  
ROCK SPRINGS   FAIR      54  37  52 SE13      30.25F                  
6HR MIN TEMP:  54; 6HR MAX TEMP:  58;                                

DIXON          FAIR      48  35  61 E14G25    30.32S                  
RAWLINS        FAIR      42  39  89 SE3       30.31F                  
6HR MIN TEMP:  42; 6HR MAX TEMP:  50;                                

SARATOGA       FAIR      45  43  93 SE9       30.32F                  
LARAMIE        FAIR      38  38 100 S6        30.34F WCI  33          
6HR MIN TEMP:  36; 6HR MAX TEMP:  43;                                

CHEYENNE       CLOUDY    47  47 100 NW5       30.31F FOG              
6HR MIN TEMP:  46; 6HR MAX TEMP:  51;                                

TORRINGTON     FAIR      42  42 100 NW3       30.25F FOG              
6HR MIN TEMP:  41; 6HR MAX TEMP:  51;                                

PINE BLUFFS    FAIR      37  37 100 W5        30.30R WCI  34          

$$